"2016-03-10 00:00:00",1444251,2.142,351.6,3.479,0.346,10.08,103.677,8.69,9.67,21.93,0,110.3,13.22,9.47,313.6
"2016-03-10 00:00:30",1444252,1.995,357.7,4.741,0.856,10.72,103.6939,8.73,9.76,21.98,0,110.3,13.18,9.51,319.7
"2016-03-10 00:01:00",1444253,3.574,357.9,8.55,1.682,12.66,103.7066,8.76,9.82,21.97,0,110.3,13.18,9.55,319.9
"2016-03-10 00:01:30",1444254,3.235,351.5,6.733,1.007,11.09,103.7066,8.76,9.8,21.86,0,110.3,13.18,9.55,313.5
"2016-03-10 00:02:00",1444255,3.65,348.3,7.138,1.329,11.67,103.7173,8.79,9.93,21.9,0,110.3,13.18,9.57,310.3
"2016-03-10 00:02:30",1444256,3.645,344.6,9.62,1.455,11.69,103.7294,8.82,9.81,21.72,0,110.3,13.17,9.60,306.6
"2016-03-10 00:03:00",1444257,3.44,346.2,6.542,1.298,12.03,103.7378,8.84,10,21.79,0,110.3,13.17,9.63,308.2
"2016-03-10 00:03:30",1444258,2.835,337.5,7.137,1.02,10.69,103.734,8.83,9.83,21.56,0,110.3,13.17,9.62,299.5
"2016-03-10 00:04:00",1444259,2.689,330.2,2.037,0.084,9.95,103.7439,8.86,9.84,21.52,0,110.3,13.22,9.64,292.2
"2016-03-10 00:04:30",1444260,2.612,333.3,3.059,0.533,10.43,103.762,8.91,9.94,21.59,0,110.3,13.22,9.69,295.3
"2016-03-10 00:05:00",1444261,4.164,336.9,6.707,1.438,12.79,103.7708,8.93,10,21.61,0,110.3,13.17,9.71,298.9
"2016-03-10 00:05:30",1444262,3.095,330.3,6.335,1.158,11.69,103.7693,8.92,10.02,21.51,0,110.3,13.17,9.71,292.3
"2016-03-10 00:06:00",1444263,2.473,326.8,1.361,0.044,10.14,103.7805,8.95,9.91,21.4,0,110.3,13.21,9.74,288.8
"2016-03-10 00:06:30",1444264,2.389,324.1,1.604,0.127,10.04,103.7836,8.96,9.94,21.32,0,110.3,13.21,9.74,286.1
"2016-03-10 00:07:00",1444265,3.629,327.1,5.747,1.465,12.28,103.7912,8.98,10.12,21.41,0,110.3,13.16,9.76,289.1
"2016-03-10 00:07:30",1444266,4.494,327.8,7.422,1.427,13.96,103.8,9,10.22,21.49,0,110.3,13.16,9.79,289.8
"2016-03-10 00:08:00",1444267,2.765,324.2,3.693,1.01,10.9,103.8038,9.01,10,21.24,0,110.3,13.17,9.80,286.2
"2016-03-10 00:08:30",1444268,2.458,318.4,2.455,0.107,10.23,103.8139,9.04,10.03,21.22,0,110.3,13.2,9.82,280.4
"2016-03-10 00:09:00",1444269,2.956,323.5,6.239,0.99,11.28,103.8207,9.06,10.12,21.34,0,110.4,13.17,9.84,285.5
"2016-03-10 00:09:30",1444270,4.135,322.7,7.088,1.368,12.84,103.8271,9.07,10.18,21.42,0,110.3,13.16,9.86,284.7
"2016-03-10 00:10:00",1444271,3.229,313.1,2.14,0.174,10.36,103.8294,9.08,10.08,21.41,0,110.3,13.2,9.86,275.1
"2016-03-10 00:10:30",1444272,3.63,317.1,3.273,0.115,10.31,103.8389,9.1,10.1,21.49,0,110.4,13.21,9.89,279.1
"2016-03-10 00:11:00",1444273,4.577,319.2,9.01,1.475,12.53,103.8422,9.11,10.28,21.66,0,110.4,13.17,9.89,281.2
"2016-03-10 00:11:30",1444274,5.181,319.9,8.93,1.415,14.03,103.8513,9.13,10.35,21.84,0,110.4,13.17,9.92,281.9
"2016-03-10 00:12:00",1444275,3.475,308.2,7.592,1.432,12.43,103.8583,9.15,10.33,21.82,0,110.4,13.17,9.94,270.2
"2016-03-10 00:12:30",1444276,3.181,313.5,1.971,0.444,10.31,103.8592,9.15,10.16,21.62,0,110.4,13.21,9.94,275.5
"2016-03-10 00:13:00",1444277,5.542,313.4,10.3,1.777,12.33,103.8473,9.12,10.24,21.76,0,110.4,13.17,9.91,275.4
"2016-03-10 00:13:30",1444278,7.57,292.6,11.67,2.009,12.18,103.8166,9.04,10.23,22.42,0,110.4,13.17,9.83,254.6
"2016-03-10 00:14:00",1444279,7.249,292.7,6.373,1.12,11.46,103.8081,9.02,10.12,22.86,0,110.4,13.17,9.81,254.7
"2016-03-10 00:14:30",1444280,8.17,303.8,13.63,1.679,12.92,103.805,9.02,10.19,23.22,0,110.4,13.17,9.80,265.8
"2016-03-10 00:15:00",1444281,8.02,320,7.349,1.552,13.91,103.7906,8.98,10.26,23.44,0,110.4,13.16,9.76,282.0
"2016-03-10 00:15:30",1444282,7.323,315.1,5.324,1.487,12.26,103.7745,8.94,10.14,23.43,0,110.4,13.16,9.72,277.1
"2016-03-10 00:16:00",1444283,7.876,305.4,12.91,1.124,12.02,103.7672,8.92,10.05,23.82,0,110.4,13.16,9.70,267.4
"2016-03-10 00:16:30",1444284,7.264,315,8.41,1.431,12.52,103.7294,8.82,10.04,24.25,0,110.4,13.16,9.60,277.0
"2016-03-10 00:17:00",1444285,9.02,316.6,5.514,1.415,11.62,103.7238,8.81,9.86,24.1,0,110.4,13.16,9.59,278.6
"2016-03-10 00:17:30",1444286,10.94,317.1,6.76,1.719,12.4,103.7238,8.81,10,24.15,0,110.4,13.16,9.59,279.1
"2016-03-10 00:18:00",1444287,12.29,320.9,7.333,1.537,13.85,103.7238,8.81,10.07,24.15,0,110.4,13.16,9.59,282.9
"2016-03-10 00:18:30",1444288,13.5,320.6,7.943,1.366,13.97,103.7238,8.81,10.09,24.09,0,110.4,13.16,9.59,282.6
"2016-03-10 00:19:00",1444289,12.85,320.6,7.616,1.426,13.93,103.7238,8.81,10.09,24.17,0,110.4,13.16,9.59,282.6
"2016-03-10 00:19:30",1444290,12.58,321,7.263,1.566,12.88,103.7119,8.78,9.98,24.09,0,110.4,13.16,9.56,283.0
"2016-03-10 00:20:00",1444291,12.99,326.4,6.554,1.502,13.13,103.6916,8.73,9.92,24.03,0,110.4,13.15,9.51,288.4
"2016-03-10 00:20:30",1444292,11.57,328.4,7.469,1.502,13.2,103.6803,8.7,10,24.06,0,110.4,13.15,9.48,290.4
"2016-03-10 00:21:00",1444293,12.53,324.6,7.578,1.748,13.4,103.6614,8.65,9.93,24.18,0,110.4,13.15,9.43,286.6
"2016-03-10 00:21:30",1444294,12.07,319.4,6.993,1.285,12.84,103.651,8.62,9.92,24.38,0,110.4,13.15,9.40,281.4
"2016-03-10 00:22:00",1444295,11.65,329.5,7.202,1.374,13.64,103.623,8.55,9.87,24.38,0,110.4,13.15,9.33,291.5
"2016-03-10 00:22:30",1444296,12.01,321.3,6.626,1.881,12.96,103.6168,8.53,9.87,24.54,0,110.4,13.15,9.32,283.3
"2016-03-10 00:23:00",1444297,11.01,319,7.108,1.57,12.39,103.5929,8.47,9.79,24.73,0,110.4,13.15,9.25,281.0
"2016-03-10 00:23:30",1444298,11.13,320.6,8.4,1.319,13.44,103.5864,8.46,9.78,24.89,0,110.4,13.15,9.24,282.6
"2016-03-10 00:24:00",1444299,10.17,318.2,8.44,1.549,13.12,103.5706,8.42,9.75,25.01,0,110.4,13.15,9.20,280.2
"2016-03-10 00:24:30",1444300,9.55,323.3,8.31,1.422,12.32,103.5559,8.38,9.69,25,0,110.4,13.15,9.16,285.3
"2016-03-10 00:25:00",1444301,10.33,321.1,7.746,1.382,12.93,103.552,8.37,9.67,25.13,0,110.4,13.15,9.15,283.1
"2016-03-10 00:25:30",1444302,10.61,317,7.444,1.542,14.16,103.5381,8.33,9.65,25.42,0,110.4,13.15,9.11,279.0
"2016-03-10 00:26:00",1444303,9.91,311.3,7.522,1.684,12.57,103.5229,8.29,9.52,25.49,0,110.4,13.15,9.08,273.3
"2016-03-10 00:26:30",1444304,9.71,315.3,8.14,1.822,12.89,103.5206,8.29,9.63,25.71,0,110.4,13.15,9.07,277.3
"2016-03-10 00:27:00",1444305,9.49,307.3,6.299,1.57,11.55,103.5187,8.28,9.51,25.73,0,110.4,13.15,9.06,269.3
"2016-03-10 00:27:30",1444306,8.4,322.4,8.37,1.525,13.45,103.5023,8.24,9.53,25.84,0,110.4,13.15,9.02,284.4
"2016-03-10 00:28:00",1444307,7.978,319.4,6.66,1.606,13.06,103.4933,8.22,9.56,26.02,0,110.4,13.15,9.00,281.4
"2016-03-10 00:28:30",1444308,11.07,306.6,9.99,1.864,12.18,103.4868,8.2,9.43,26.02,0,110.4,13.16,8.98,268.6
"2016-03-10 00:29:00",1444309,10.92,303.7,10.42,1.474,12.56,103.4851,8.2,9.5,26.08,0,110.4,13.16,8.98,265.7
"2016-03-10 00:29:30",1444310,10.59,299.7,9.5,1.352,11.88,103.469,8.16,9.42,26.09,0,110.4,13.16,8.94,261.7
"2016-03-10 00:30:00",1444311,12.96,301,7.355,1.426,13.45,103.4543,8.12,9.48,25.86,0,110.4,13.16,8.90,263.0
"2016-03-10 00:30:30",1444312,12.98,302.9,7.134,1.408,13.8,103.4527,8.11,9.44,25.54,0,110.4,13.16,8.90,264.9
"2016-03-10 00:31:00",1444313,12.57,301.5,8.05,1.525,12.69,103.4419,8.09,9.43,25.53,0,110.4,13.16,8.87,263.5
"2016-03-10 00:31:30",1444314,12.19,299.7,6.988,1.24,12.61,103.4259,8.05,9.32,25.59,0,110.4,13.16,8.83,261.7
"2016-03-10 00:32:00",1444315,11.75,301.1,8.38,1.576,12.78,103.4203,8.03,9.24,25.52,0,110.4,13.16,8.81,263.1
"2016-03-10 00:32:30",1444316,11.15,298.3,6.297,1.281,11.6,103.4084,8,9.3,25.7,0,110.4,13.16,8.78,260.3
"2016-03-10 00:33:00",1444317,12.32,300.7,7.422,1.752,13.92,103.3948,7.967,9.29,25.49,0,110.4,13.16,8.75,262.7
"2016-03-10 00:33:30",1444318,9.9,303.5,7.804,1.494,12.22,103.3855,7.943,9.17,25.84,0,110.3,13.16,8.72,265.5
"2016-03-10 00:34:00",1444319,12.37,303.4,9.51,1.587,13.14,103.3844,7.94,9.25,25.67,0,110.3,13.16,8.72,265.4
"2016-03-10 00:34:30",1444320,13.03,303.1,8.73,1.43,13.31,103.3751,7.916,9.2,24.97,0,110.4,13.16,8.70,265.1
"2016-03-10 00:35:00",1444321,10.76,296.1,6.644,1.526,12.27,103.3684,7.899,9.12,25.59,0,110.4,13.16,8.68,258.1
"2016-03-10 00:35:30",1444322,11.31,302.7,7.549,1.33,13.41,103.3591,7.875,9.17,25.83,0,110.4,13.16,8.65,264.7
"2016-03-10 00:36:00",1444323,11.47,300.3,8.67,1.451,13.32,103.3552,7.865,9.15,25.41,0,110.3,13.16,8.64,262.3
"2016-03-10 00:36:30",1444324,11.61,298.8,7.741,1.574,13.13,103.356,7.868,9.13,25.43,0,110.3,13.16,8.65,260.8
"2016-03-10 00:37:00",1444325,12.13,298.8,6.375,1.239,12.79,103.3578,7.872,9.1,25.29,0,110.3,13.16,8.65,260.8
"2016-03-10 00:37:30",1444326,13.21,304.6,7.306,1.573,12.87,103.3593,7.876,9.07,24.15,0,110.4,13.16,8.66,266.6
"2016-03-10 00:38:00",1444327,12.53,304.4,7.031,1.459,12.73,103.3514,7.856,9.12,23.46,0,110.3,13.17,8.64,266.4
"2016-03-10 00:38:30",1444328,13.03,308.5,6.946,1.312,13.7,103.3452,7.84,9.1,23.14,0,110.3,13.17,8.62,270.5
"2016-03-10 00:39:00",1444329,12.57,310.6,6.492,1.518,13.16,103.3353,7.815,9.05,23.2,0,110.3,13.17,8.59,272.6
"2016-03-10 00:39:30",1444330,12.07,312.2,8.01,1.446,14.22,103.3301,7.801,9.08,24.55,0,110.3,13.15,8.58,274.2
"2016-03-10 00:40:00",1444331,11.69,313,7.831,1.391,12.95,103.3309,7.803,9.09,24.69,0,110.3,13.16,8.58,275.0
"2016-03-10 00:40:30",1444332,11.91,310.6,7.328,1.464,12.94,103.3336,7.81,9.02,24.29,0,110.3,13.16,8.59,272.6
"2016-03-10 00:41:00",1444333,11.49,309.5,7.413,1.321,12.68,103.3344,7.812,9.01,24.24,0,110.3,13.16,8.59,271.5
"2016-03-10 00:41:30",1444334,12.22,310.1,7.306,1.344,13.71,103.328,7.796,9.04,24.47,0,110.3,13.16,8.58,272.1
"2016-03-10 00:42:00",1444335,11.39,311.2,7.161,1.347,13.33,103.3222,7.781,9,24.57,0,110.3,13.15,8.56,273.2
"2016-03-10 00:42:30",1444336,11.53,309.8,7.439,1.397,13.56,103.3135,7.759,9.03,24.75,0,110.3,13.16,8.54,271.8
"2016-03-10 00:43:00",1444337,11.92,307.9,7.544,1.582,13.04,103.3087,7.747,8.99,24.48,0,110.3,13.16,8.53,269.9
"2016-03-10 00:43:30",1444338,11.53,306.2,7.52,1.477,13.36,103.3063,7.74,8.94,24.35,0,110.3,13.16,8.52,268.2
"2016-03-10 00:44:00",1444339,10.76,305.4,8.56,1.427,12.45,103.297,7.717,8.95,24.44,0,110.3,13.17,8.50,267.4
"2016-03-10 00:44:30",1444340,10.84,305.5,7.633,1.649,12.34,103.2923,7.705,8.84,24.13,0,110.3,13.17,8.48,267.5
"2016-03-10 00:45:00",1444341,12.55,305.8,7.775,1.371,13.55,103.2825,7.679,8.94,24.95,0,110.3,13.17,8.46,267.8
"2016-03-10 00:45:30",1444342,12.38,308,7.353,1.359,13.58,103.2845,7.685,8.94,25,0,110.3,13.17,8.46,270.0
"2016-03-10 00:46:00",1444343,12.18,309.3,7.035,1.379,13.26,103.2803,7.674,8.91,24.94,0,110.3,13.17,8.45,271.3
"2016-03-10 00:46:30",1444344,12.59,309,6.439,1.272,13.95,103.2664,7.639,8.92,24.95,0,110.3,13.17,8.42,271.0
"2016-03-10 00:47:00",1444345,12.85,308.5,6.825,1.321,13.3,103.2515,7.6,8.91,25.37,0,110.3,13.17,8.38,270.5
"2016-03-10 00:47:30",1444346,12.81,307,6.769,1.3,13.34,103.2509,7.599,8.86,25.34,0,110.3,13.18,8.38,269.0
"2016-03-10 00:48:00",1444347,11.68,300.6,6.964,1.332,11.28,103.2411,7.574,8.73,25.92,0,110.3,13.18,8.35,262.6
"2016-03-10 00:48:30",1444348,11.54,298.9,6.79,1.249,11,103.2216,7.524,8.71,26.73,0,110.3,13.17,8.30,260.9
"2016-03-10 00:49:00",1444349,12.08,302.5,7.368,1.443,12.96,103.2171,7.512,8.74,26.32,0,110.3,13.18,8.29,264.5
"2016-03-10 00:49:30",1444350,12.1,301.7,7.235,1.434,12.93,103.2125,7.501,8.77,26.32,0,110.2,13.18,8.28,263.7
"2016-03-10 00:50:00",1444351,12.04,302.7,6.801,1.39,13.66,103.1987,7.465,8.75,26.23,0,110.2,13.18,8.24,264.7
"2016-03-10 00:50:30",1444352,11.59,302.6,6.758,1.335,13.42,103.1841,7.428,8.75,26.09,0,110.2,13.18,8.21,264.6
"2016-03-10 00:51:00",1444353,10.74,296.4,7.506,1.308,12.49,103.1832,7.426,8.64,25.94,0,110.2,13.18,8.20,258.4
"2016-03-10 00:51:30",1444354,11.07,299.6,7.899,1.397,12.86,103.177,7.41,8.66,26.02,0,110.2,13.18,8.19,261.6
"2016-03-10 00:52:00",1444355,9.34,295,5.285,1.091,10.78,103.1697,7.391,8.55,25.31,0,110.2,13.18,8.17,257.0
"2016-03-10 00:52:30",1444356,9.88,302.3,5.861,1.634,11.6,103.1559,7.356,8.53,24.86,0,110.2,13.18,8.13,264.3
"2016-03-10 00:53:00",1444357,11.51,305.9,7.212,1.313,13.65,103.1552,7.354,8.67,26.12,0,110.2,13.18,8.13,267.9
"2016-03-10 00:53:30",1444358,11.41,303.6,6.976,1.373,13.63,103.1604,7.367,8.64,25.53,0,110.2,13.18,8.15,265.6
"2016-03-10 00:54:00",1444359,11.19,306,7.149,1.291,13.52,103.1636,7.376,8.65,25.4,0,110.2,13.18,8.15,268.0
"2016-03-10 00:54:30",1444360,11.07,306.5,7.799,1.411,12.49,103.1668,7.384,8.56,25.48,0,110.2,13.18,8.16,268.5
"2016-03-10 00:55:00",1444361,10.25,302.1,5.788,1.309,11.29,103.1656,7.381,8.47,26.01,0,110.2,13.18,8.16,264.1
"2016-03-10 00:55:30",1444362,9.63,305.6,6.999,1.11,11.17,103.1555,7.355,8.46,25.74,0,110.2,13.19,8.13,267.6
"2016-03-10 00:56:00",1444363,10.19,313.1,6.813,1.704,13.15,103.1459,7.331,8.54,25.81,0,110.2,13.18,8.11,275.1
"2016-03-10 00:56:30",1444364,10.15,308.8,7.314,1.412,13.68,103.144,7.326,8.6,25.95,0,110.2,13.18,8.10,270.8
"2016-03-10 00:57:00",1444365,10.49,308.5,6.895,1.399,13.55,103.1463,7.332,8.6,26.91,0,110.2,13.18,8.11,270.5
"2016-03-10 00:57:30",1444366,11.32,306.2,6.618,1.322,13.69,103.1457,7.33,8.58,27.29,0,110.2,13.18,8.11,268.2
"2016-03-10 00:58:00",1444367,10.16,297.3,3.837,0.862,10.17,103.1504,7.342,8.35,27.78,0,110.1,13.18,8.12,259.3
"2016-03-10 00:58:30",1444368,11.45,304.4,7.306,1.318,11.99,103.1493,7.339,8.43,27.89,0,110.2,13.18,8.12,266.4
"2016-03-10 00:59:00",1444369,10.87,310,7.212,1.154,12.89,103.1448,7.328,8.6,26.88,0,110.2,13.18,8.11,272.0
"2016-03-10 00:59:30",1444370,11.63,307.1,7.339,1.33,13.65,103.1346,7.302,8.55,27.96,0,110.2,13.18,8.08,269.1
"2016-03-10 01:00:00",1444371,11.95,304,7.224,1.414,13.81,103.1199,7.264,8.53,28.53,0,110.2,13.18,8.04,266.0
"2016-03-10 01:00:30",1444372,12.06,301.9,7.458,1.357,13.48,103.1165,7.255,8.54,28.68,0,110.2,13.18,8.03,263.9
"2016-03-10 01:01:00",1444373,11.83,296.1,6.957,1.362,11.93,103.1165,7.255,8.39,28.31,0,110.2,13.19,8.03,258.1
"2016-03-10 01:01:30",1444374,11.92,296,6.861,1.431,11.28,103.1151,7.252,8.41,27.49,0,110.2,13.19,8.03,258.0
"2016-03-10 01:02:00",1444375,11.42,296.2,7.339,1.236,11.16,103.1044,7.224,8.38,27.32,0,110.2,13.19,8.00,258.2
"2016-03-10 01:02:30",1444376,12.53,300.2,7.201,1.333,13.2,103.0979,7.208,8.46,27.26,0,110.2,13.2,7.99,262.2
"2016-03-10 01:03:00",1444377,12.8,302.5,7.044,1.431,13.36,103.0869,7.18,8.44,27.33,0,110.2,13.2,7.96,264.5
"2016-03-10 01:03:30",1444378,13.29,301.9,6.888,1.389,13.64,103.0826,7.169,8.47,27.26,0,110.2,13.2,7.95,263.9
"2016-03-10 01:04:00",1444379,13.23,303,6.957,1.406,13.41,103.0826,7.169,8.45,27.76,0,110.2,13.2,7.95,265.0
"2016-03-10 01:04:30",1444380,12.94,303.9,7.007,1.365,13,103.0756,7.151,8.44,28.35,0,110.1,13.2,7.93,265.9
"2016-03-10 01:05:00",1444381,13.42,301.8,7.288,1.374,12.73,103.0637,7.12,8.41,28.84,0,110.2,13.2,7.90,263.8
"2016-03-10 01:05:30",1444382,12.89,301.6,7.059,1.38,11.46,103.0517,7.09,8.32,29.01,0,110.2,13.2,7.87,263.6
"2016-03-10 01:06:00",1444383,12.49,304.6,6.486,1.296,11.33,103.0511,7.088,8.33,29.31,0,110.2,13.2,7.87,266.6
"2016-03-10 01:06:30",1444384,12.69,309.6,7.483,1.393,12.52,103.0439,7.07,8.28,29.47,0,110.1,13.2,7.85,271.6
"2016-03-10 01:07:00",1444385,12.84,314.9,6.953,1.371,12.68,103.031,7.037,8.32,29.83,0,110.1,13.2,7.81,276.9
"2016-03-10 01:07:30",1444386,12.44,315.5,6.709,1.338,13.26,103.026,7.024,8.34,30.01,0,110.1,13.2,7.80,277.5
"2016-03-10 01:08:00",1444387,12.57,316.3,6.755,1.263,13.18,103.0088,6.98,8.32,30.15,0,110.1,13.2,7.76,278.3
"2016-03-10 01:08:30",1444388,12.42,316.5,6.408,1.271,13.45,102.9953,6.945,8.3,30.24,0,110.1,13.2,7.72,278.5
"2016-03-10 01:09:00",1444389,12.9,317.9,6.683,1.233,13.33,102.9959,6.947,8.27,30.26,0,110.1,13.2,7.72,279.9
"2016-03-10 01:09:30",1444390,13.14,317.7,6.496,1.28,13.04,102.9824,6.913,8.27,30.42,0,110.1,13.2,7.69,279.7
"2016-03-10 01:10:00",1444391,13.37,316.4,6.642,1.228,13,102.9683,6.877,8.22,30.5,0,110.1,13.2,7.65,278.4
"2016-03-10 01:10:30",1444392,13.68,317.7,6.732,1.488,13.02,102.9665,6.872,8.21,30.6,0,110.1,13.2,7.65,279.7
"2016-03-10 01:11:00",1444393,14.1,316.3,6.579,1.329,13.13,102.951,6.832,8.17,30.63,0,110.1,13.2,7.61,278.3
"2016-03-10 01:11:30",1444394,13.89,317.9,6.651,1.323,13.05,102.9391,6.802,8.15,30.84,0,110.1,13.2,7.58,279.9
"2016-03-10 01:12:00",1444395,13.44,320.8,6.629,1.273,13.27,102.9332,6.787,8.15,31.14,0,110.2,13.2,7.56,282.8
"2016-03-10 01:12:30",1444396,13.79,321.5,6.741,1.282,12.9,102.9189,6.75,8.1,31.43,0,110.1,13.2,7.53,283.5
"2016-03-10 01:13:00",1444397,13.58,321.3,6.227,1.294,12.88,102.9084,6.724,8.08,31.67,0,110.1,13.2,7.50,283.3
"2016-03-10 01:13:30",1444398,13.23,322.5,6.595,1.3,12.99,102.9029,6.709,8.03,31.85,0,110.1,13.2,7.48,284.5
"2016-03-10 01:14:00",1444399,13.99,328.6,8.32,1.296,12.81,102.8823,6.657,7.986,31.96,0,110.1,13.19,7.43,290.6
"2016-03-10 01:14:30",1444400,13.33,334.4,6.565,1.243,12.81,102.8801,6.651,7.989,31.9,0,110.1,13.19,7.43,296.4
"2016-03-10 01:15:00",1444401,12.5,330.9,6.542,1.322,12.91,102.8688,6.622,7.955,32.04,0,110.1,13.2,7.40,292.9
"2016-03-10 01:15:30",1444402,12.11,333.9,6.219,1.254,13.01,102.853,6.582,7.936,31.93,0,110.1,13.19,7.36,295.9
"2016-03-10 01:16:00",1444403,12.87,332.6,7.136,1.268,13.26,102.8456,6.563,7.924,31.75,0,110.1,13.19,7.34,294.6
"2016-03-10 01:16:30",1444404,12.79,335,6.954,1.269,12.97,102.8298,6.523,7.864,31.74,0,110.1,13.2,7.30,297.0
"2016-03-10 01:17:00",1444405,12.96,335.3,6.703,1.42,12.77,102.8146,6.484,7.84,32.1,0,110.1,13.19,7.26,297.3
"2016-03-10 01:17:30",1444406,13.88,334.9,6.141,1.35,12.69,102.8126,6.479,7.843,32.49,0,110.1,13.2,7.25,296.9
"2016-03-10 01:18:00",1444407,13.89,331,6.375,1.38,12.51,102.8019,6.451,7.786,32.77,0,110.1,13.2,7.23,293.0
"2016-03-10 01:18:30",1444408,13.58,331.9,7.173,1.208,12.66,102.7798,6.395,7.75,32.79,0,110.1,13.2,7.17,293.9
"2016-03-10 01:19:00",1444409,13.56,330.2,7.067,1.349,12.9,102.7762,6.386,7.744,33.09,0,110.1,13.2,7.16,292.2
"2016-03-10 01:19:30",1444410,14.19,332.1,6.829,1.335,12.57,102.7544,6.33,7.698,33.46,0,110.1,13.2,7.10,294.1
"2016-03-10 01:20:00",1444411,14.52,332.4,7.118,1.445,12.39,102.7448,6.306,7.667,33.72,0,110.1,13.21,7.08,294.4
"2016-03-10 01:20:30",1444412,14.06,330.4,7.452,1.317,12.54,102.7301,6.268,7.651,33.93,0,110.1,13.21,7.04,292.4
"2016-03-10 01:21:00",1444413,14.33,335.1,6.537,1.234,12.69,102.7109,6.219,7.603,34.1,0,110.1,13.21,6.99,297.1
"2016-03-10 01:21:30",1444414,14.18,335.5,6.603,1.432,12.76,102.6999,6.191,7.562,34.18,0,110.1,13.21,6.96,297.5
"2016-03-10 01:22:00",1444415,13.85,335.5,6.558,1.37,12.89,102.6773,6.133,7.555,34.39,0,110.1,13.21,6.91,297.5
"2016-03-10 01:22:30",1444416,14.03,333.7,5.913,1.205,12.53,102.6728,6.122,7.501,34.47,0,110.1,13.21,6.90,295.7
"2016-03-10 01:23:00",1444417,14.38,334.1,6.649,1.162,12.48,102.6523,6.069,7.476,34.8,0,110.1,13.21,6.84,296.1
"2016-03-10 01:23:30",1444418,14.32,332.1,7.153,1.226,12.21,102.647,6.056,7.433,35.11,0,110.1,13.21,6.83,294.1
"2016-03-10 01:24:00",1444419,14.05,330.3,6.876,1.254,12.74,102.6279,6.007,7.386,35.37,0,110.1,13.21,6.78,292.3
"2016-03-10 01:24:30",1444420,14.36,328.3,6.535,1.248,12.88,102.6191,5.984,7.36,34.91,0,110.1,13.21,6.76,290.3
"2016-03-10 01:25:00",1444421,14.07,329.4,6.595,1.257,13.04,102.6133,5.97,7.35,34.48,0,110.1,13.21,6.74,291.4
"2016-03-10 01:25:30",1444422,14.15,328.9,6.404,1.217,12.8,102.6018,5.94,7.32,34.56,0,110.1,13.21,6.71,290.9
"2016-03-10 01:26:00",1444423,14.91,330.1,6.6,1.287,12.65,102.5928,5.917,7.272,34.15,0,110.1,13.21,6.69,292.1
"2016-03-10 01:26:30",1444424,14.82,328.9,6.929,1.382,12.73,102.5931,5.918,7.226,33.09,0,110.1,13.21,6.69,290.9
"2016-03-10 01:27:00",1444425,14.35,328.8,6.223,1.339,12.85,102.5836,5.894,7.217,32.58,0,110.1,13.21,6.67,290.8
"2016-03-10 01:27:30",1444426,14.23,329.9,6.373,1.162,12.87,102.57,5.859,7.203,32.68,0,110.1,13.21,6.63,291.9
"2016-03-10 01:28:00",1444427,13.83,327.1,6.703,1.202,12.75,102.5661,5.849,7.169,32.62,0,110.1,13.21,6.62,289.1
"2016-03-10 01:28:30",1444428,13.22,327.1,6.457,1.345,12.76,102.5656,5.848,7.152,32.29,0,110.1,13.21,6.62,289.1
"2016-03-10 01:29:00",1444429,13.18,327.4,6.637,1.26,13.17,102.5682,5.854,7.147,31.92,0,110.1,13.21,6.63,289.4
"2016-03-10 01:29:30",1444430,13.77,325.9,6.584,1.434,12.75,102.5679,5.854,7.117,31.89,0,110.1,13.21,6.63,287.9
"2016-03-10 01:30:00",1444431,13.75,326.7,6.655,1.216,12.88,102.5628,5.841,7.124,31.97,0,110.1,13.21,6.61,288.7
"2016-03-10 01:30:30",1444432,14.22,325,6.571,1.268,12.49,102.5625,5.84,7.096,32.28,0,110.1,13.21,6.61,287.0
"2016-03-10 01:31:00",1444433,13.93,327.2,6.478,1.298,12.94,102.5606,5.835,7.101,32.63,0,110.1,13.21,6.61,289.2
"2016-03-10 01:31:30",1444434,14.5,329.6,6.072,1.255,12.42,102.555,5.821,7.12,33.02,0,110.1,13.21,6.59,291.6
"2016-03-10 01:32:00",1444435,14.32,326.8,6.54,1.209,12.41,102.5542,5.819,7.082,32.94,0,110.1,13.21,6.59,288.8
"2016-03-10 01:32:30",1444436,14.66,327.2,6.587,1.253,12.48,102.5511,5.811,7.097,32.9,0,110.1,13.21,6.58,289.2
"2016-03-10 01:33:00",1444437,14.58,328.6,6.65,1.167,12.51,102.5446,5.794,7.062,33.13,0,110.1,13.21,6.57,290.6
"2016-03-10 01:33:30",1444438,14.42,328.6,6.613,1.341,12.62,102.5424,5.788,7.048,32.81,0,110.1,13.2,6.56,290.6
"2016-03-10 01:34:00",1444439,14.21,328.4,6.657,1.299,13.19,102.5424,5.788,7.07,32.92,0,110,13.21,6.56,290.4
"2016-03-10 01:34:30",1444440,14.82,330.3,6.159,1.205,12.87,102.5415,5.786,7.063,32.69,0,110.1,13.21,6.56,292.3
"2016-03-10 01:35:00",1444441,14.71,327.7,6.508,1.239,12.69,102.537,5.775,7.031,32.32,0,110.1,13.21,6.55,289.7
"2016-03-10 01:35:30",1444442,14.53,328.3,6.676,1.202,12.84,102.5325,5.763,7.026,32.15,0,110.1,13.21,6.54,290.3
"2016-03-10 01:36:00",1444443,14.48,328.1,6.325,1.306,12.86,102.5294,5.755,7.014,32.06,0,110,13.21,6.53,290.1
"2016-03-10 01:36:30",1444444,14.79,327.9,6.274,1.288,12.91,102.5308,5.759,6.992,31.76,0,110.1,13.21,6.53,289.9
"2016-03-10 01:37:00",1444445,14.8,329.8,6.269,1.196,13.16,102.5305,5.758,7.019,31.54,0,110.1,13.22,6.53,291.8
"2016-03-10 01:37:30",1444446,14.59,331,6.42,1.246,12.74,102.5311,5.759,7.038,31.53,0,110.1,13.22,6.53,293.0
"2016-03-10 01:38:00",1444447,14.39,331.3,6.426,1.202,12.87,102.5333,5.765,6.998,31.32,0,110,13.22,6.54,293.3
"2016-03-10 01:38:30",1444448,14.24,329.9,6.54,1.346,12.96,102.5387,5.779,7.009,31.2,0,110,13.21,6.55,291.9
"2016-03-10 01:39:00",1444449,14.42,328.3,6.607,1.305,12.58,102.541,5.785,7.032,31.31,0,110,13.22,6.56,290.3
"2016-03-10 01:39:30",1444450,14.74,328.3,6.262,1.247,12.88,102.5424,5.788,7.03,31.35,0,110,13.22,6.56,290.3
"2016-03-10 01:40:00",1444451,15.08,329.3,6.393,1.189,13.02,102.5424,5.788,7.036,31.26,0,110,13.22,6.56,291.3
"2016-03-10 01:40:30",1444452,14.91,330.1,6.323,1.325,12.62,102.5424,5.788,7.037,31.23,0,110,13.22,6.56,292.1
"2016-03-10 01:41:00",1444453,14.62,331.9,6.605,1.233,12.91,102.5424,5.788,7.019,31.05,0,110,13.22,6.56,293.9
"2016-03-10 01:41:30",1444454,13.97,330.6,6.717,1.224,12.96,102.5424,5.788,7.012,30.98,0,110,13.22,6.56,292.6
"2016-03-10 01:42:00",1444455,13.59,331.1,6.555,1.28,12.94,102.5424,5.788,7.021,30.94,0,110,13.22,6.56,293.1
"2016-03-10 01:42:30",1444456,13.64,332.8,6.262,1.264,12.64,102.5427,5.789,7.061,31.15,0,110,13.22,6.56,294.8
"2016-03-10 01:43:00",1444457,14.02,332.8,6.418,1.172,12.57,102.543,5.79,7.052,31.12,0,110,13.22,6.56,294.8
"2016-03-10 01:43:30",1444458,13.64,332.1,6.648,1.233,12.78,102.5441,5.793,7.037,30.88,0,110,13.22,6.57,294.1
"2016-03-10 01:44:00",1444459,13.24,331.3,6.131,1.272,12.51,102.5485,5.804,7.057,30.88,0,110,13.22,6.58,293.3
"2016-03-10 01:44:30",1444460,13.1,330.8,6.524,1.26,12.67,102.5479,5.802,7.059,30.87,0,110,13.22,6.57,292.8
"2016-03-10 01:45:00",1444461,13.09,331.2,6.632,1.265,12.53,102.5499,5.808,7.018,30.92,0,110,13.22,6.58,293.2
"2016-03-10 01:45:30",1444462,13.22,330.8,6.348,1.259,12.46,102.5531,5.816,7.063,31.23,0,110,13.22,6.59,292.8
"2016-03-10 01:46:00",1444463,13.93,329.2,6.756,1.29,12.37,102.554,5.818,7.02,31.4,0,110,13.22,6.59,291.2
"2016-03-10 01:46:30",1444464,14.16,329.9,6.488,1.217,12.85,102.5525,5.814,7.034,31.68,0,110,13.22,6.59,291.9
"2016-03-10 01:47:00",1444465,13.99,330.8,6.151,1.202,12.65,102.5467,5.799,7.055,31.71,0,110,13.22,6.57,292.8
"2016-03-10 01:47:30",1444466,13.53,327.7,6.54,1.237,12.29,102.5442,5.793,7.033,31.77,0,110,13.22,6.57,289.7
"2016-03-10 01:48:00",1444467,13.62,329.1,6.427,1.153,12.49,102.542,5.787,7.05,31.88,0,110,13.22,6.56,291.1
"2016-03-10 01:48:30",1444468,13.73,328.5,6.567,1.226,12.53,102.537,5.775,7.014,32.24,0,110,13.22,6.55,290.5
"2016-03-10 01:49:00",1444469,13.48,327.5,6.53,1.331,12.57,102.5322,5.762,7.012,32.36,0,110,13.22,6.53,289.5